Regional Weather Roundup
Issued by NWS

Home | Current Version | Previous Version | Text Only | Print | Product List | Glossary On
Versions: 1 2 3 4 5 6 7 8 9 10 11 12 13 14 15 16 17 18 19 20 21 22 23 24 25 26 27 28 29 30 31 32 33 34 35 36 37 38 39 40 41 42 43 44 45 46 47 48 49 50
000
ASUS44 KJAN 300910
RWRMS

MISSISSIPPI HOURLY WEATHER ROUNDUP
NATIONAL WEATHER SERVICE JACKSON MS
400 AM CDT SAT MAY 30 2015

NOTE: "FAIR: INDICATES FEW OR NO CLOUDS BELOW 12,000 FEET WITH NO
SIGNIFICANT WEATHER AND/OR OBSTRUCTIONS TO VISIBILITY.

MSZ001>002-007>008-010>013-018>021-025>028-034>036-301000-
NORTHWEST MISSISSIPPI

CITY           SKY/WX    TMP DP  RH WIND       PRES   REMARKS
CLARKSDALE     CLOUDY    72  66  83 CALM      29.99S
CLEVELAND      CLOUDY    69  67  93 S9        29.99S
GREENWOOD      PTCLDY    69  66  90 SW3       30.01S
GREENVILLE     MOCLDY    70  66  87 S13       29.98F
OLIVE BRANCH   CLEAR     70  70 100 S8        29.99S
OXFORD         FAIR      68  66  94 S5        30.03S
TUNICA         PTSUNNY   72  66  83 S15       29.99R
$$

MSZ003>006-009-014>017-022>024-029>033-037>039-301000-
NORTHEAST MISSISSIPPI

CITY           SKY/WX    TMP DP  RH WIND       PRES   REMARKS
COLUMBUS AFB   PTCLDY    71  68  92 SE5       30.05F
CORINTH        FAIR      72  66  83 SE3       30.02S
GOLDN TRIANGLE PTCLDY    70  64  83 S6        30.04F
STARKVILLE     FAIR      68  66  94 CALM      30.05S
TUPELO         PTCLDY    71  66  84 S6        30.03F
$$

MSZ040-058-301000-
CENTRAL MISSISSIPPI

CITY           SKY/WX    TMP DP  RH WIND       PRES   REMARKS
JACKSON INTL   PTCLDY    70  68  93 S3        30.04S
JACKSON HAWKNS PTCLDY    72  69  90 S7        30.04S
MERIDIAN KEY   PTCLDY    67  66  97 CALM      30.07R
MERIDIAN NAS   PTCLDY    68  66  93 CALM      30.07S
RAYMOND        FAIR      72  66  83 SE6       30.03S
VICKSBURG      MOCLDY    73  70  90 S6        30.01F
$$

MSZ059>079-301000-
SOUTH MISSISSIPPI

CITY           SKY/WX    TMP DP  RH WIND       PRES   REMARKS
BROOKHAVEN     FAIR      70  70 100 CALM      30.06S FOG
HATTIESBURG    CLEAR     68  66  93 CALM      30.07R
MCCOMB         PTCLDY    70  69  97 CALM      30.05S FOG
NATCHEZ        MOCLDY    72  68  88 S7        30.03S
PINE BELT      CLEAR     68  64  88 CALM      30.07S
$$

MSZ080>082-301000-
COASTAL MISSISSIPPI

CITY           SKY/WX    TMP DP  RH WIND       PRES   REMARKS
BILOXI         CLEAR     77  70  80 SE3       30.04R
PASCAGOULA     CLEAR     66  66 100 CALM      30.05R FOG
GULFPORT       PTCLDY    74  70  87 CALM      30.03S
$$



USA.gov is the U.S. government's official web portal to all federal, state and local government web resources and services.